| time (UTC) | temp F | wind direction | speed knots | gust knots | rain 1hr in | rain 24hr in | rain mn in | humidity % | barometer mb |
| 20260506101542 | 56 | 13 | 7.0 | 17.4 | 0.00 | 0.00 | 0.00 | 53 | 1007.8 |
| 20260506100019 | 55 | 32 | 7.8 | 18.2 | 0.00 | 0.00 | 0.00 | 52 | 1007.7 |
| 20260506094518 | 55 | 40 | 5.2 | 12.2 | 0.00 | 0.00 | 0.00 | 58 | 1007.6 |
| 20260506093015 | 54 | 80 | 7.0 | 13.9 | 0.00 | 0.00 | 0.00 | 62 | 1007.5 |
| 20260506091519 | 54 | 30 | 7.0 | 11.3 | 0.00 | 0.00 | 0.00 | 68 | 1007.6 |
| 20260506090011 | 54 | 5 | 6.1 | 13.0 | 0.00 | 0.00 | 0.00 | 67 | 1007.6 |
| 20260506084517 | 54 | 15 | 7.0 | 13.9 | 0.00 | 0.00 | 0.00 | 68 | 1007.4 |
| 20260506083008 | 53 | 23 | 7.0 | 12.2 | 0.00 | 0.00 | 0.00 | 74 | 1007.4 |
| 20260506081605 | 53 | 26 | 4.3 | 13.0 | 0.00 | 0.00 | 0.00 | 77 | 1007.3 |
| 20260506061516 | 49 | 42 | 7.0 | 12.2 | 0.00 | 0.00 | 0.00 | 89 | 1007.0 |
| 20260506044602 | 49 | 342 | 7.0 | 11.3 | 0.00 | 0.00 | 0.00 | 88 | 1007.0 |
| 20260506043056 | 49 | 26 | 5.2 | 9.6 | 0.00 | 0.00 | 0.00 | 88 | 1007.0 |
| 20260506041605 | 49 | 360 | 3.5 | 9.6 | 0.00 | 0.00 | 0.00 | 88 | 1006.9 |
| 20260506040054 | 49 | 355 | 4.3 | 9.6 | 0.00 | 0.00 | 0.00 | 87 | 1006.9 |
| 20260506034555 | 49 | 5 | 4.3 | 8.7 | 0.00 | 0.00 | 0.00 | 86 | 1007.0 |
| 20260506033055 | 49 | 340 | 6.1 | 12.2 | 0.00 | 0.00 | 0.00 | 86 | 1007.0 |
| 20260506031554 | 49 | 342 | 6.1 | 11.3 | 0.00 | 0.00 | 0.00 | 86 | 1007.2 |
| 20260506030048 | 49 | 20 | 5.2 | 11.3 | 0.00 | 0.00 | 0.00 | 85 | 1007.3 |
| 20260506024545 | 49 | 355 | 5.2 | 11.3 | 0.00 | 0.00 | 0.00 | 85 | 1007.5 |
| 20260506023044 | 49 | 5 | 6.1 | 13.0 | 0.00 | 0.00 | 0.00 | 86 | 1007.5 |
| 20260506021544 | 49 | 350 | 4.3 | 12.2 | 0.00 | 0.00 | 0.00 | 86 | 1007.5 |
| 20260506020042 | 49 | 17 | 4.3 | 13.0 | 0.00 | 0.00 | 0.00 | 86 | 1007.6 |
| 20260506014548 | 50 | 360 | 5.2 | 12.2 | 0.00 | 0.00 | 0.00 | 85 | 1007.6 |
| 20260506013040 | 50 | 350 | 4.3 | 11.3 | 0.00 | 0.00 | 0.00 | 84 | 1007.7 |
| 20260506011541 | 50 | 350 | 3.5 | 10.4 | 0.00 | 0.00 | 0.00 | 84 | 1007.8 |
| 20260506010036 | 50 | 9 | 4.3 | 8.7 | 0.00 | 0.00 | 0.00 | 84 | 1007.9 |
| 20260506004540 | 50 | 5 | 4.3 | 11.3 | 0.00 | 0.00 | 0.00 | 84 | 1008.0 |
| 20260506003032 | 50 | 34 | 4.3 | 10.4 | 0.00 | 0.00 | 0.00 | 83 | 1008.1 |
| 20260506001531 | 50 | 15 | 5.2 | 12.2 | 0.00 | 0.00 | 0.00 | 83 | 1008.2 |
| 20260506000037 | 49 | 10 | 5.2 | 12.2 | 0.00 | 0.00 | 0.00 | 83 | 1008.3 |
| 20260505234528 | 49 | 325 | 7.0 | 10.4 | 0.00 | 0.00 | 0.00 | 83 | 1008.4 |
| 20260505233027 | 49 | 341 | 7.0 | 10.4 | 0.00 | 0.00 | 0.00 | 83 | 1008.4 |
| 20260505231527 | 49 | 22 | 6.1 | 10.4 | 0.00 | 0.00 | 0.00 | 83 | 1008.4 |
| 20260505230031 | 49 | 355 | 5.2 | 9.6 | 0.00 | 0.00 | 0.00 | 84 | 1008.5 |
| 20260505224534 | 49 | 12 | 4.3 | 10.4 | 0.00 | 0.00 | 0.00 | 85 | 1008.7 |
| 20260505223030 | 49 | 355 | 4.3 | 8.7 | 0.00 | 0.00 | 0.00 | 85 | 1008.7 |
| 20260505221520 | 49 | 360 | 4.3 | 10.4 | 0.00 | 0.00 | 0.00 | 85 | 1008.9 |
| 20260505220032 | 49 | 25 | 6.1 | 11.3 | 0.00 | 0.00 | 0.00 | 85 | 1009.0 |
| 20260505214529 | 49 | 11 | 7.0 | 11.3 | 0.00 | 0.00 | 0.00 | 86 | 1009.0 |
| 20260505213021 | 49 | 5 | 4.3 | 10.4 | 0.00 | 0.00 | 0.00 | 86 | 1009.1 |
| 20260505211515 | 49 | 9 | 4.3 | 9.6 | 0.00 | 0.00 | 0.00 | 85 | 1009.1 |
| 20260505210016 | 50 | 40 | 4.3 | 10.4 | 0.00 | 0.00 | 0.00 | 85 | 1009.3 |
| 20260505204523 | 50 | 49 | 3.5 | 10.4 | 0.00 | 0.00 | 0.00 | 84 | 1009.5 |
| 20260505203013 | 50 | 47 | 2.6 | 13.9 | 0.00 | 0.00 | 0.00 | 84 | 1009.6 |
| 20260505201516 | 50 | 29 | 5.2 | 11.3 | 0.00 | 0.00 | 0.00 | 83 | 1009.5 |
| 20260505200013 | 50 | 45 | 5.2 | 11.3 | 0.00 | 0.00 | 0.00 | 83 | 1009.3 |
| 20260505194512 | 50 | 22 | 4.3 | 8.7 | 0.00 | 0.00 | 0.00 | 81 | 1009.1 |
| 20260505193033 | 50 | 19 | 5.2 | 10.4 | 0.00 | 0.00 | 0.00 | 80 | 1009.0 |
| 20260505191511 | 50 | 355 | 4.3 | 8.7 | 0.00 | 0.00 | 0.00 | 80 | 1008.9 |
| 20260505190024 | 50 | 34 | 5.2 | 9.6 | 0.00 | 0.00 | 0.00 | 78 | 1008.9 |
| 20260505184509 | 51 | 23 | 4.3 | 9.6 | 0.00 | 0.00 | 0.00 | 78 | 1008.9 |
| 20260505183016 | 51 | 23 | 4.3 | 10.4 | 0.00 | 0.00 | 0.00 | 78 | 1009.0 |
| 20260505181512 | 51 | 9 | 6.1 | 10.4 | 0.00 | 0.00 | 0.00 | 78 | 1008.9 |
| 20260505180012 | 52 | 16 | 6.1 | 12.2 | 0.00 | 0.00 | 0.00 | 77 | 1009.0 |
| 20260505174507 | 52 | 355 | 7.0 | 13.0 | 0.00 | 0.00 | 0.00 | 77 | 1009.0 |
| 20260505173007 | 53 | 23 | 7.0 | 11.3 | 0.00 | 0.00 | 0.00 | 76 | 1008.9 |
| 20260505171522 | 53 | 48 | 5.2 | 11.3 | 0.00 | 0.00 | 0.00 | 74 | 1008.9 |
| 20260505170012 | 54 | 44 | 6.1 | 9.6 | 0.00 | 0.00 | 0.00 | 73 | 1008.9 |
| 20260505164505 | 54 | 46 | 5.2 | 9.6 | 0.00 | 0.00 | 0.00 | 73 | 1008.9 |
| 20260505163004 | 54 | 47 | 7.8 | 13.9 | 0.00 | 0.00 | 0.00 | 71 | 1008.9 |
| 20260505161504 | 54 | 38 | 6.1 | 11.3 | 0.00 | 0.00 | 0.00 | 71 | 1008.9 |
| 20260505153002 | 55 | 23 | 6.1 | 12.2 | 0.00 | 0.00 | 0.00 | 71 | 1009.0 |
| 20260505151501 | 56 | 61 | 6.1 | 12.2 | 0.00 | 0.00 | 0.00 | 71 | 1009.1 |
| 20260505150116 | 56 | 27 | 7.0 | 13.0 | 0.00 | 0.00 | 0.00 | 70 | 1009.0 |
| 20260505140117 | 56 | 29 | 5.2 | 10.4 | 0.00 | 0.00 | 0.00 | 70 | 1009.3 |
| 20260505124547 | 56 | 37 | 5.2 | 11.3 | 0.00 | 0.00 | 0.00 | 69 | 1009.8 |
| 20260505123106 | 56 | 42 | 5.2 | 13.9 | 0.00 | 0.00 | 0.00 | 68 | 1009.7 |
| 20260505121546 | 56 | 341 | 7.8 | 13.0 | 0.00 | 0.00 | 0.00 | 68 | 1009.8 |
| 20260505120050 | 55 | 336 | 5.2 | 12.2 | 0.00 | 0.00 | 0.00 | 70 | 1009.8 |
| 20260505114552 | 55 | 49 | 6.1 | 10.4 | 0.00 | 0.00 | 0.00 | 71 | 1010.0 |
| 20260505113042 | 54 | 30 | 4.3 | 12.2 | 0.00 | 0.00 | 0.00 | 72 | 1010.0 |
| 20260505111539 | 55 | 22 | 5.2 | 12.2 | 0.00 | 0.00 | 0.00 | 73 | 1010.0 |